Regional Weather Roundup
Issued by NWS Charleston, SC

Current Version | Previous Version | Graphics & Text | Print | Product List | Glossary On
Versions: 1 2 3 4 5 6 7 8 9 10 11 12 13 14 15 16 17 18 19 20 21 22 23 24 25 26 27 28 29 30 31 32 33 34 35 36 37 38 39 40 41 42 43 44 45 46 47 48 49 50
000 ASUS42 KCHS 220512 RWRCHS REGIONAL WEATHER ROUNDUP NATIONAL WEATHER SERVICE CHARLESTON SC 100 AM EDT SAT JUL 22 2017 NOTE: "FAIR" INDICATES FEW OR NO CLOUDS BELOW 12,000 FEET WITH NO SIGNIFICANT WEATHER AND/OR OBSTRUCTIONS TO VISIBILITY. NOT ALL STATIONS ARE QUALITY CONTROLLED. USE DATA WITH CAUTION... ESPECIALLY DEWPOINT OBSERVATIONS. SCZ027-030-031-034>040-042>050-220600- ...SOUTHEAST SOUTH CAROLINA... CITY SKY/WX TMP DP RH WIND PRES REMARKS N CHARLESTON CLEAR 77 75 93 S5 30.03S WATERFRONT PRK N/A 81 78 91 SW5 30.01S JOHNS ISLAND FAIR 81 77 89 CALM 30.03S PINOPOLIS N/A 79 77 94 S5 29.96R MONCKS CORNER FAIR 75 73 94 S5 30.03S SUMMERVILLE FAIR 77 73 88 CALM 30.03F BEAUFORT MCAS CLEAR 81 78 91 S3 30.03S BEAUFORT ARPT FAIR 79 77 94 S3 30.03R HILTON HEAD IS CLEAR 81 77 89 CALM 30.04S WALTERBORO CLEAR 77 73 88 CALM 30.03F ALLENDALE NOT AVBL ...SOUTHERN MIDLANDS AND PEE DEE... CITY SKY/WX TMP DP RH WIND PRES REMARKS GEORGETOWN FAIR 73 73 100 SW3 30.03S KINGSTREE FAIR 73 72 94 CALM 30.02R ORANGEBURG CLEAR 76 73 91 S5 30.02S BARNWELL FAIR 77 75 94 CALM 30.03S AIKEN FAIR 73 72 94 SW5 30.06S MANNING FAIR 79 77 94 W22 30.02S COLUMBIA PTCLDY 79 72 79 W5 30.00F SUMTER PTCLDY 79 73 80 S7 29.99S FLORENCE CLEAR 79 75 87 SW7 30.01S MYRTLE BEACH CLEAR 79 76 90 SW7 30.03S N MYRTLE BEACH CLEAR 79 77 94 SW7 30.01S $$ GAZ063-065-086>088-099>101-113>116-118-119-134>141-150-220600- ...SOUTHEAST GEORGIA... CITY SKY/WX TMP DP RH WIND PRES REMARKS SAVANNAH ARPT CLEAR N/A N/A N/A SW3 30.04S HUNTER AAF CLEAR 77 74 91 W3 30.01S FORT STEWART CLEAR 75 72 91 CALM 30.00F STATESBORO CLEAR 75 75 100 CALM 30.03S SYLVANIA CLEAR 75 75 99 CALM 30.04S CLAXTON FAIR 74 73 98 CALM 30.04S ...CSRA...CENTRAL AND FAR SOUTHEAST GEORGIA... CITY SKY/WX TMP DP RH WIND PRES REMARKS THOMSON CLEAR 73 69 88 W3 30.07F AUGUSTA-BUSH CLEAR 76 72 87 S3 30.01F AUGUSTA-DANIEL CLEAR 79 67 66 VRB3 30.03F SWAINSBORO FAIR 73 73 100 S3 30.04S VIDALIA CLEAR 73 72 94 S3 30.04F EASTMAN FAIR 75 75 99 CALM 30.06F HAZLEHURST FAIR 75 75 100 CALM 30.03F ALMA CLEAR 73 71 93 CALM 30.03F WAYCROSS CLEAR 76 76 100 CALM 30.05R JESUP NOT AVBL BAXLEY FAIR 73 73 100 CALM 30.03F BRUNSWICK CLEAR 75 73 94 CALM 30.04S SAINT SIMONS CLEAR 80 73 79 E5 30.03S $$ SCZ027-028-034-036>038-045-046-048>050-GAZ119-141-220600- ...LAKE AND SUPPLEMENTAL COASTAL OBSERVATIONS... STATION/POSITION TIME TEMP WIND PRES WAVE SWELL AIR SEA DIR/SP/G HT/PER HT/PER/DIR (UTC) (F) (DEG/KT/KT) (MB) (FT/S) (FT/S/D) WINYAH BAY 0345 80 230/ 4 1017.0 LAKE MURRAY 0420 83 210/ 8/ 11 1015.2 ACE BASIN NERRS 0345 80 CALM 1017.0 FORT PULASKI 0442 80 86 170/ 3/ 4 1017.2F SAPELO ISLAND 0400 78 CALM 1017.0 $$ ANZ835-935-AMZ111-154-330-350-352-354-370-450-454-472-220600- ...C-MAN AND BUOY OBSERVATIONS... STATION/POSITION TIME TEMP WIND PRES WAVE SWELL AIR SEA DIR/SP/G HT/PER HT/PER/DIR (UTC) (F) (DEG/KT/KT) (MB) (FT/S) (FT/S/D) BUOY 41004 0450 83 84 210/ 12/ 16 1016.5S 3/10 2/120/10 BUOY 41008 0350 82 82 210/ 8/ 8 1017.3 2/ 9 2/130/ 9 FOLLY BEACH CMAN 0400 82 200/ 12/ 13 1017.5F CAPERS NEARSHORE 0408 80 84 220/ 14/ 19 1016.7F FRIPP NEARSHORE 0408 83 84 220/ 12/ 16 1016.9R STATION/POSITION TIME TEMP WIND PRES WAVE SWELL AIR SEA DIR/SP/G HT/PER HT/PER/DIR (UTC) (F) (DEG/KT/KT) (MB) (FT/S) (FT/S/D) 5E ST. MARYS GA 0430 82 N/A 2/ 8 FRYING PAN BUOY 0450 83 83 220/ 14/ 17 1016.5S 3/ 4 2/130/ 9 BUOY 41025 0450 83 84 230/ 19/ 25 1015.7R 5/ 4 2/130/10 CAPE LOOKOUT NC 0400 81 220/ 12/ 16 1015.8F BUOY 41002 0350 82 84 200/ 14/ 16 1018.6 4/ 8 3/100/ 8 BUOY 41010 0450 84 85 190/ 10/ 12 1018.1F 3/ 8 3/ 70/ 8 ST AUGUSTINE FL 0500 76 82 210/ 6/ 8 1017.9F $$

USA.gov is the U.S. government's official web portal to all federal, state and local government web resources and services.